Larissa, Greece

5:26 PM EEST on June 27, 2017 (GMT +0300)
Larisa Air Base

Weather History for LGLR - June, 2013

Change the Weather History Date:

Sunday, June 16, 2013

  Actual Average Record
Temperature  
Mean Temperature 78 °F -  
Max Temperature 93 °F 90 °F - ()
Min Temperature 62 °F 62 °F - ()
Cooling Degree Days 12    
Growing Degree Days 28 (Base 50)    
Moisture  
Dew Point 55 °F    
Average Humidity 45    
Maximum Humidity 89    
Minimum Humidity 15    
Precipitation  
Precipitation 0.00 in 0.03 in - ()
Sea Level Pressure  
Sea Level Pressure 29.95 in    
Wind  
Wind Speed 2 mph ()    
Max Wind Speed 12 mph    
Max Gust Speed -    
Visibility 6.2 miles    
Events      
T = Trace of Precipitation, MM = Missing Value Source: Averaged Metar Reports

Daily Weather History Graph

Daily Weather History Graph

Search for Another Location

Airport or City:

Trip Planner

Search our weather history database for the weather conditions in past years. The results will help you decide how hot, cold, wet, or windy it might be!

Date:

Astronomy

Jun. 16, 2013 Rise Set
Actual Time 6:02 AM EEST 9:00 PM EEST
Civil Twilight 5:29 AM EEST 9:32 PM EEST
Nautical Twilight 4:48 AM EEST 10:13 PM EEST
Astronomical Twilight 4:00 AM EEST 11:01 PM EEST
Moon 1:17 PM EEST (6/16) 12:56 AM EEST (6/16)
Length of Visible Light 16h 03m
Length of Day
14h 57m
Waxing Crescent, 46% of the Moon is Illuminated
Jun 16
Waxing Crescent
Jun 16
First Quarter
Jun 23
Full
Jun 30
Last Quarter
Jul 8
New

Hourly Weather History & Observations

Time (EEST) Temp. Heat Index Dew Point Humidity Pressure Visibility Wind Dir Wind Speed Gust Speed Precip Events Conditions
12:50 AM 71.6 °F - 59.0 °F 64% 29.95 in 6.2 mi Calm Calm - N/A   Partly Cloudy
1:50 AM 69.8 °F - 59.0 °F 68% 29.95 in 6.2 mi Calm Calm - N/A   Partly Cloudy
3:00 AM 70 °F - 59 °F 60% 29.95 in 6 mi Calm Calm - -   Scattered Clouds
3:50 AM 66.2 °F - 59.0 °F 78% 29.95 in 6.2 mi Calm Calm - N/A   Partly Cloudy
4:50 AM 82.4 °F 92.4 °F 78.8 °F 89% 29.95 in 6.2 mi Calm Calm - N/A   Partly Cloudy
5:50 AM 64.4 °F - 59.0 °F 83% 29.95 in 6.2 mi Calm Calm - N/A   Partly Cloudy
6:20 AM 62.6 °F - 59.0 °F 88% 29.95 in 6.2 mi Calm Calm - N/A   Partly Cloudy
7:50 AM 68.0 °F - 59.0 °F 73% 29.98 in 6.2 mi Calm Calm - N/A   Partly Cloudy
8:50 AM 77.0 °F - 59.0 °F 54% 29.98 in - Calm Calm - N/A   Clear
9:00 AM 78 °F - 59 °F 42% 29.99 in 6 mi Calm Calm - -  
9:50 AM 78.8 °F - 57.2 °F 47% 29.98 in - Calm Calm - N/A   Clear
10:50 AM 86.0 °F 84.5 °F 55.4 °F 35% 29.98 in 6.2 mi Calm Calm - N/A   Partly Cloudy
11:50 AM 87.8 °F 85.7 °F 53.6 °F 31% 29.98 in 6.2 mi Variable 3.5 mph - N/A   Partly Cloudy
12:50 PM 91.4 °F - 51.8 °F 26% 29.98 in 6.2 mi ENE 4.6 mph - N/A   Partly Cloudy
1:50 PM 91.4 °F - 50.0 °F 24% 29.95 in 6.2 mi ENE 4.6 mph - N/A   Partly Cloudy
2:50 PM 93.2 °F - 51.8 °F 24% 29.95 in 6.2 mi Calm Calm - N/A   Partly Cloudy
3:00 PM 94 °F - 51 °F 15% 29.93 in 6 mi Calm Calm - -   Scattered Clouds
3:50 PM 93.2 °F - 51.8 °F 24% 29.92 in 6.2 mi ENE 11.5 mph - N/A   Partly Cloudy
4:50 PM 93.2 °F - 51.8 °F 24% 29.92 in 6.2 mi ENE 10.4 mph - N/A   Partly Cloudy
5:50 PM 91.4 °F - 51.8 °F 26% 29.92 in 6.2 mi East 10.4 mph - N/A   Partly Cloudy
6:50 PM 91.4 °F - 51.8 °F 26% 29.92 in 6.2 mi East 10.4 mph - N/A   Partly Cloudy
7:50 PM 87.8 °F - 46.4 °F 24% 29.92 in 6.2 mi ENE 11.5 mph - N/A   Partly Cloudy
8:50 PM 82.4 °F - 46.4 °F 28% 29.92 in 6.2 mi East 8.1 mph - N/A   Partly Cloudy
9:00 PM 82 °F - 46 °F 18% 29.93 in 6 mi East 8.1 mph - -   Scattered Clouds
9:50 PM 78.8 °F - 50.0 °F 36% 29.95 in 6.2 mi East 8.1 mph - N/A   Partly Cloudy
10:50 PM 75.2 °F - 55.4 °F 50% 29.98 in 6.2 mi ENE 6.9 mph - N/A   Partly Cloudy
11:50 PM 73.4 °F - 55.4 °F 53% 29.98 in 6.2 mi ESE 5.8 mph - N/A   Partly Cloudy